#timestamp,LO_Frequency,Hit 
1501862415.7,286046816.2,N
1501862435.5,286046811.6,N
1501862455.4,286046805.2,N
1501862475.2,286046800.4,N
1501862495.0,286046808.6,N
1501862495.9,286046808.6,N
1501862515.7,286046808.9,N
1501862535.6,286046812.0,N
1501862555.4,286046809.9,N
1501862575.2,286046808.7,N
1501862595.1,286046812.2,N
1501862596.0,286046812.2,N
1501862615.8,286046809.7,N
1501862635.6,286046819.5,N
1501862655.5,286046816.4,N
1501862675.3,286046814.9,N
1501862695.1,286046813.3,N
1501862715.9,286046808.0,N
1501862735.7,286046806.7,N
1501862755.5,286046810.1,N
1501862775.4,286046818.9,N
1501862795.2,286046820.1,N
1501862815.0,286046814.2,N
1501862815.9,286046814.2,N
1501862835.7,286046819.8,N
1501862855.6,286046816.9,N
1501862875.4,286046811.3,N
1501862895.2,286046815.1,N
1501862915.1,286046813.8,N
1501862916.0,286046813.8,N
1501862935.8,286046819.3,N
1501862955.6,286046819.6,N
1501862975.5,286046817.4,N
1501862995.3,286046816.0,N
1501863015.1,286046816.3,N
1501863035.9,286046829.0,N
1501863055.7,286046834.7,N
1501863075.5,286046829.5,N
1501863095.3,286046832.1,N
1501863115.2,286046831.0,N
1501863135.0,286046830.3,N
1501863135.9,286046830.3,N
1501863155.7,286046828.3,N
1501863175.6,286046825.6,N
1501863195.4,286046825.2,N
1501863215.2,286046815.7,N
1501863235.1,286046816.8,N
1501863236.0,286046816.8,N
1501863255.8,286046830.1,N
1501863275.6,286046830.6,N
1501863295.5,286046831.6,N
1501863315.3,286046825.3,N
1501863335.1,286046822.1,N
1501863355.8,286046820.1,N
1501863375.7,286046820.0,N
1501863395.5,286046818.9,N
1501863415.3,286046822.3,N
1501863435.2,286046828.4,N
1501863455.9,286046836.3,N
1501863475.7,286046833.7,N
1501863495.6,286046842.8,N
1501863515.4,286046844.4,N
1501863535.2,286046834.9,N
1501863555.1,286046832.0,N
1501863556.0,286046832.0,N
1501863575.8,286046831.8,N
1501863595.6,286046831.8,N
1501863615.5,286046834.5,N
1501863635.3,286046830.6,N
1501863655.1,286046835.4,N
1501863675.8,286046845.6,N
1501863695.7,286046844.6,N
1501863715.5,286046849.8,N
1501863735.3,286046851.8,N
1501863755.2,286046858.4,N
1501863775.9,286046857.3,N
1501863795.7,286046857.1,N
1501863815.6,286046859.3,N
1501863835.4,286046861.9,N
1501863855.2,286046862.0,N
1501863875.1,286046864.1,N
1501863876.0,286046864.1,N
1501863895.8,286046870.2,N
1501863915.6,286046869.0,N
1501863935.4,286046858.9,N
1501863955.3,286046858.1,N
1501863975.1,286046850.3,N
1501863995.8,286046847.2,N
1501864015.7,286046845.8,N
1501864035.5,286046847.3,N
1501864055.3,286046844.8,N
1501864075.2,286046839.9,N
1501864095.9,286046847.7,N
1501864115.7,286046849.4,N
1501864135.6,286046852.7,N
1501864155.4,286046853.7,N
1501864175.2,286046850.3,N
1501864195.0,286046844.6,N
1501864195.9,286046844.6,N
1501864215.8,286046843.1,N
1501864235.6,286046839.3,N
1501864255.4,286046832.0,N
1501864275.3,286046830.0,N
1501864295.1,286046825.8,N
1501864315.8,286046832.5,N
1501864335.7,286046833.0,N
1501864355.5,286046836.3,N
1501864375.3,286046837.2,N
1501864395.2,286046832.6,N
1501864415.9,286046834.0,N
1501864435.7,286046840.2,N
1501864455.6,286046840.5,N
1501864475.4,286046844.4,N
1501864495.2,286046839.4,N
1501864515.0,286046834.2,N
1501864515.9,286046834.2,N
1501864535.8,286046828.4,N
1501864555.6,286046825.7,N
1501864575.4,286046831.3,N
1501864595.3,286046832.2,N
1501864615.1,286046823.7,N
1501864635.8,286046824.1,N
1501864655.7,286046823.4,N
1501864675.5,286046815.7,N
1501864695.3,286046815.8,N
1501864715.2,286046819.8,N
1501864735.9,286046817.3,N
1501864755.7,286046812.5,N
1501864775.5,286046811.1,N
1501864795.4,286046807.3,N
1501864815.2,286046803.5,N
1501864835.0,286046804.7,N
1501864835.9,286046804.7,N
1501864855.8,286046808.9,N
1501864875.6,286046805.4,N
1501864895.4,286046814.4,N
1501864915.3,286046820.5,N
1501864935.1,286046830.6,N
1501864955.8,286046829.2,N
1501864975.7,286046823.1,N
1501864995.5,286046824.2,N
1501865015.3,286046826.3,N
1501865035.2,286046820.0,N
1501865055.9,286046824.0,N
1501865075.7,286046826.0,N
1501865095.5,286046825.3,N
1501865115.4,286046827.7,N
1501865135.2,286046824.4,N
1501865155.0,286046819.0,N
1501865155.9,286046819.0,N
1501865175.8,286046821.5,N
1501865195.6,286046820.8,N
1501865215.4,286046820.3,N
1501865235.3,286046821.9,N
1501865255.1,286046821.2,N
1501865256.0,286046821.2,N
1501865275.8,286046822.9,N
1501865295.7,286046823.1,N
1501865315.5,286046818.9,N
1501865335.3,286046827.9,N
1501865355.1,286046833.6,N
1501865375.9,286046831.4,N
1501865395.7,286046829.0,N
1501865415.5,286046825.8,N
1501865435.4,286046823.7,N
1501865455.2,286046829.3,N
1501865475.0,286046834.1,N
1501865475.9,286046834.1,N
1501865495.8,286046830.6,N
1501865515.6,286046821.5,N
1501865535.4,286046818.4,N
1501865555.3,286046816.8,N
1501865575.1,286046821.5,N
1501865576.0,286046821.5,N
1501865595.8,286046819.5,N
1501865615.7,286046815.4,N
1501865635.5,286046813.5,N
1501865655.3,286046821.9,N
1501865675.2,286046826.5,N
1501865695.9,286046820.9,N
1501865715.7,286046816.2,N
1501865735.5,286046811.2,N
1501865755.4,286046804.6,N
1501865775.2,286046805.7,N
1501865795.0,286046803.1,N
1501865795.9,286046803.1,N
1501865815.8,286046804.2,N
1501865835.6,286046801.0,N
1501865855.4,286046795.7,N
1501865875.3,286046793.4,N
1501865895.1,286046791.7,N
1501865896.0,286046791.7,N
1501865915.8,286046791.7,N
1501865935.7,286046791.1,N
1501865955.5,286046787.5,N
1501865975.3,286046786.3,N
1501865995.1,286046784.4,N
